This is the latest recevied weather packets stored in our database for station/object SR9WXY. If no packets are shown the sender has not sent any weather packets the latest 10 day(s).
| Time | Temp. | Humidity | Pressure | Rain* | Wind** | Luminosity | Snow |
|---|---|---|---|---|---|---|---|
| 1787973542 | 12.78° C | 100% | 882.2 hPa | - | - | - | - |
| 1787973242 | 13.33° C | 100% | 882 hPa | - | - | - | - |
| 1787972942 | 13.33° C | 100% | 881.8 hPa | - | - | - | - |
| 1787972642 | 13.33° C | 100% | 881.7 hPa | - | - | - | - |
| 1787972342 | 13.33° C | 100% | 881.6 hPa | - | - | - | - |
| 1787972041 | 13.89° C | 100% | 881.5 hPa | - | - | - | - |
| 1787971741 | 13.89° C | 100% | 881.6 hPa | - | - | - | - |
| 1787971442 | 14.44° C | 100% | 881.7 hPa | - | - | - | - |
| 1787970841 | 15° C | 100% | 881.7 hPa | - | - | - | - |
| 1787970541 | 16.11° C | 100% | 881.6 hPa | - | - | - | - |
| 1787970241 | 16.67° C | 100% | 881.4 hPa | - | - | - | - |
| 1787969941 | 17.22° C | 100% | 880.8 hPa | - | - | - | - |
| 1787969641 | 16.67° C | 100% | 880.6 hPa | - | - | - | - |
| 1787969341 | 16.67° C | 100% | 880.6 hPa | - | - | - | - |
| 1787968849 | 16.67° C | 100% | 880.5 hPa | - | - | - | - |
| 1787968550 | 16.67° C | 100% | 880.7 hPa | - | - | - | - |
| 1787968249 | 16.67° C | 100% | 880.7 hPa | - | - | - | - |
| 1787967949 | 16.67° C | 100% | 881 hPa | - | - | - | - |
| 1787967649 | 16.67° C | 100% | 881.1 hPa | - | - | - | - |
| 1787967349 | 16.67° C | 100% | 881.2 hPa | - | - | - | - |
| 1787967049 | 16.67° C | 100% | 881.4 hPa | - | - | - | - |
| 1787966748 | 16.67° C | 100% | 881.3 hPa | - | - | - | - |
| 1787966448 | 16.67° C | 100% | 881.4 hPa | - | - | - | - |
| 1787966148 | 16.67° C | 100% | 881.3 hPa | - | - | - | - |
| 1787965539 | 17.22° C | 100% | 881.6 hPa | - | - | - | - |
* Rain since midnight (hover to see other rain measurements)
** Current wind speed in m/s (hover to see current wind gust speed)